"2016-03-08 00:00:00",1438491,4.546,99.6,4.95,0.992,7.29,101.326,2.683,3.893,67.61,0,109.9,13.29,3.44,61.6
"2016-03-08 00:00:30",1438492,5.878,102.4,7.661,1.417,9.05,101.324,2.678,3.987,67.25,0,109.9,13.29,3.44,64.4
"2016-03-08 00:01:00",1438493,6.265,99.3,6.958,1.275,10.14,101.3235,2.676,3.969,67,0,109.9,13.29,3.44,61.3
"2016-03-08 00:01:30",1438494,5.601,94.8,9.51,1.347,8.77,101.3183,2.663,3.934,66.61,0,109.9,13.29,3.42,56.8
"2016-03-08 00:02:00",1438495,5.077,98.9,9.81,1.323,7.765,101.3158,2.657,3.844,66.49,0,109.9,13.29,3.42,60.9
"2016-03-08 00:02:30",1438496,4.785,100.3,11.77,1.194,7.425,101.313,2.649,3.814,67.09,0,109.9,13.29,3.41,62.3
"2016-03-08 00:03:00",1438497,5.801,96.9,5.978,1.582,8.6,101.311,2.644,3.847,67.53,0,109.9,13.29,3.41,58.9
"2016-03-08 00:03:30",1438498,6.59,108.3,7.003,1.378,9.22,101.3102,2.642,3.966,67.77,0,109.9,13.29,3.40,70.3
"2016-03-08 00:04:00",1438499,5.485,106.8,8.27,1.426,7.648,101.3111,2.645,3.838,68.25,0,109.9,13.29,3.41,68.8
"2016-03-08 00:04:30",1438500,5.42,108.5,7.06,1.325,7.863,101.3096,2.641,3.917,68.78,0,109.9,13.29,3.40,70.5
"2016-03-08 00:05:00",1438501,5.618,134.9,7.685,1.235,8.06,101.3108,2.644,3.863,68.96,0,109.9,13.29,3.41,96.9
"2016-03-08 00:05:30",1438502,3.98,121.3,14.87,1.376,7.766,101.3139,2.652,3.872,70.1,0,109.9,13.29,3.41,83.3
"2016-03-08 00:06:00",1438503,3.771,133.5,5.902,1.533,7.731,101.3136,2.651,3.854,70.49,0,109.9,13.29,3.41,95.5
"2016-03-08 00:06:30",1438504,4.702,112.3,8.78,1.479,7.908,101.3131,2.65,3.862,70.97,0,109.9,13.29,3.41,74.3
"2016-03-08 00:07:00",1438505,4.953,128.5,8.27,1.361,7.581,101.3139,2.652,3.817,70.74,0,109.9,13.29,3.41,90.5
"2016-03-08 00:07:30",1438506,4.448,125.3,10.48,1.179,7.583,101.3105,2.643,3.86,70.58,0,109.9,13.29,3.40,87.3
"2016-03-08 00:08:00",1438507,4.494,128.3,11,1.288,7.271,101.3021,2.622,3.792,70.51,0,109.9,13.29,3.38,90.3
"2016-03-08 00:08:30",1438508,5.132,116.2,7.745,1.387,8.01,101.2987,2.613,3.851,70.62,0,109.9,13.29,3.37,78.2
"2016-03-08 00:09:00",1438509,5.129,129.7,7.231,1.347,7.499,101.2961,2.606,3.859,70.86,0,109.9,13.29,3.37,91.7
"2016-03-08 00:09:30",1438510,4.824,133.8,6.571,1.45,7.363,101.2851,2.578,3.771,71.28,0,109.9,13.29,3.34,95.8
"2016-03-08 00:10:00",1438511,4.678,126.3,7.924,1.5,7.843,101.282,2.57,3.847,71.6,0,109.9,13.29,3.33,88.3
"2016-03-08 00:10:30",1438512,4.969,114.2,7.203,1.357,8.33,101.2823,2.571,3.841,71.58,0,109.9,13.28,3.33,76.2
"2016-03-08 00:11:00",1438513,4.966,117.2,8.54,1.42,8.04,101.2806,2.567,3.784,71.41,0,109.9,13.28,3.33,79.2
"2016-03-08 00:11:30",1438514,4.327,113.3,8.38,1.367,7.481,101.2752,2.553,3.712,71.33,0,109.9,13.29,3.31,75.3
"2016-03-08 00:12:00",1438515,5.049,113.9,9.02,1.35,7.742,101.2659,2.529,3.842,71.42,0,109.9,13.29,3.29,75.9
"2016-03-08 00:12:30",1438516,5.468,119.8,8.72,1.449,7.89,101.2546,2.5,3.727,70.95,0,109.9,13.29,3.26,81.8
"2016-03-08 00:13:00",1438517,5.586,120.8,8.67,1.362,8.12,101.2532,2.497,3.764,71.01,0,109.9,13.29,3.26,82.8
"2016-03-08 00:13:30",1438518,4.953,118.2,5.135,1.278,7.12,101.2538,2.498,3.735,71.07,0,109.9,13.29,3.26,80.2
"2016-03-08 00:14:00",1438519,5.153,118.2,7.074,1.578,9.45,101.2524,2.495,3.826,71.07,0,109.9,13.29,3.26,80.2
"2016-03-08 00:14:30",1438520,4.91,114.6,8.43,1.519,8.01,101.2501,2.489,3.667,70.9,0,109.9,13.29,3.25,76.6
"2016-03-08 00:15:00",1438521,4.92,115.2,9.42,1.552,7.177,101.2414,2.467,3.701,70.91,0,109.9,13.29,3.23,77.2
"2016-03-08 00:15:30",1438522,5.306,128.5,9.12,1.47,8.15,101.238,2.458,3.711,70.94,0,109.9,13.29,3.22,90.5
"2016-03-08 00:16:00",1438523,4.965,131.4,8.99,1.41,7.644,101.2366,2.454,3.654,71.13,0,109.9,13.3,3.22,93.4
"2016-03-08 00:16:30",1438524,4.692,144.3,7.197,1.485,7.685,101.2306,2.439,3.703,71.48,0,109.9,13.3,3.20,106.3
"2016-03-08 00:17:00",1438525,4.875,138.3,8.89,1.382,8.39,101.2235,2.421,3.716,71.91,0,109.9,13.3,3.18,100.3
"2016-03-08 00:17:30",1438526,4.243,125.6,6.961,1.205,6.921,101.2216,2.416,3.604,72.16,0,109.9,13.3,3.18,87.6
"2016-03-08 00:18:00",1438527,4.722,130.7,8.14,1.346,7.228,101.2216,2.416,3.677,72.19,0,109.9,13.3,3.18,92.7
"2016-03-08 00:18:30",1438528,4.794,132.6,10.64,1.337,7.871,101.2216,2.416,3.686,72.08,0,109.9,13.3,3.18,94.6
"2016-03-08 00:19:00",1438529,5.07,131.6,7.394,1.345,7.98,101.219,2.41,3.68,72,0,109.9,13.3,3.17,93.6
"2016-03-08 00:19:30",1438530,5.565,136.2,7.802,1.314,8.93,101.21,2.387,3.654,71.83,0,109.9,13.3,3.15,98.2
"2016-03-08 00:20:00",1438531,5.633,137.3,7.07,1.371,8.28,101.2046,2.373,3.638,71.65,0,109.9,13.3,3.13,99.3
"2016-03-08 00:20:30",1438532,5.434,137.6,6.602,1.274,7.434,101.2035,2.37,3.521,71.4,0,109.9,13.3,3.13,99.6
"2016-03-08 00:21:00",1438533,5.476,139.2,5.887,1.314,7.99,101.1961,2.351,3.635,71.47,0,109.9,13.3,3.11,101.2
"2016-03-08 00:21:30",1438534,5.916,137.7,6.914,1.257,8.25,101.1885,2.332,3.58,71.3,0,109.8,13.3,3.09,99.7
"2016-03-08 00:22:00",1438535,5.783,138.3,8.36,1.366,8.35,101.1879,2.33,3.608,71.42,0,109.9,13.3,3.09,100.3
"2016-03-08 00:22:30",1438536,5.766,137.5,7.854,1.332,9.38,101.1876,2.33,3.68,71.83,0,109.9,13.3,3.09,99.5
"2016-03-08 00:23:00",1438537,5.544,130.2,7.294,1.214,8.48,101.1876,2.33,3.56,71.64,0,109.8,13.3,3.09,92.2
"2016-03-08 00:23:30",1438538,5.204,126.3,5.348,1.226,7.309,101.1876,2.33,3.545,71.33,0,109.8,13.3,3.09,88.3
"2016-03-08 00:24:00",1438539,5.707,128.6,7.193,1.323,8.23,101.1854,2.324,3.554,71.01,0,109.9,13.3,3.08,90.6
"2016-03-08 00:24:30",1438540,5.117,123.7,8.86,1.258,7.97,101.1809,2.312,3.511,70.81,0,109.9,13.3,3.07,85.7
"2016-03-08 00:25:00",1438541,5.483,132.8,10.86,1.57,9.05,101.1795,2.309,3.598,70.78,0,109.9,13.3,3.07,94.8
"2016-03-08 00:25:30",1438542,4.8,132.4,6.487,1.304,8.2,101.1778,2.304,3.526,70.87,0,109.9,13.3,3.06,94.4
"2016-03-08 00:26:00",1438543,4.391,124.5,7.379,1.288,7.388,101.1752,2.298,3.472,70.81,0,109.9,13.3,3.06,86.5
"2016-03-08 00:26:30",1438544,4.723,124.9,7.603,1.494,8.25,101.1707,2.286,3.531,70.65,0,109.9,13.29,3.05,86.9
"2016-03-08 00:27:00",1438545,4.676,124.3,6.091,1.405,8.39,101.1716,2.289,3.547,70.38,0,109.9,13.29,3.05,86.3
"2016-03-08 00:27:30",1438546,4.836,122.2,6.251,1.314,7.822,101.1753,2.298,3.435,69.99,0,109.9,13.29,3.06,84.2
"2016-03-08 00:28:00",1438547,6.051,125.6,7.19,1.357,9.16,101.1784,2.306,3.604,69.99,0,109.9,13.29,3.07,87.6
"2016-03-08 00:28:30",1438548,4.824,122.1,8.47,1.471,8.1,101.1852,2.323,3.551,69.93,0,109.8,13.29,3.08,84.1
"2016-03-08 00:29:00",1438549,5.572,124.1,9.28,1.438,7.796,101.1883,2.331,3.481,69.67,0,109.9,13.29,3.09,86.1
"2016-03-08 00:29:30",1438550,6.103,138.1,7.915,1.397,7.849,101.1954,2.349,3.492,69.68,0,109.8,13.29,3.11,100.1
"2016-03-08 00:30:00",1438551,5.461,129.9,8.95,1.322,7.802,101.1965,2.352,3.559,70,0,109.8,13.29,3.11,91.9
"2016-03-08 00:30:30",1438552,4.834,130.3,9.53,1.301,8.16,101.1959,2.351,3.512,70.05,0,109.9,13.29,3.11,92.3
"2016-03-08 00:31:00",1438553,5.863,130.7,8.11,1.334,8.92,101.1985,2.357,3.551,70.07,0,109.9,13.3,3.12,92.7
"2016-03-08 00:31:30",1438554,4.93,133.3,7.801,1.335,7.378,101.2008,2.363,3.534,69.83,0,109.8,13.3,3.12,95.3
"2016-03-08 00:32:00",1438555,5.512,135.4,6.313,1.254,8.07,101.2014,2.365,3.576,69.69,0,109.8,13.3,3.13,97.4
"2016-03-08 00:32:30",1438556,5.854,145.4,8.6,1.36,7.897,101.2005,2.362,3.529,69.61,0,109.9,13.3,3.12,107.4
"2016-03-08 00:33:00",1438557,5.667,143.2,9.13,1.469,8.08,101.2034,2.37,3.56,70.07,0,109.8,13.3,3.13,105.2
"2016-03-08 00:33:30",1438558,6.597,144.1,7.956,1.364,9.62,101.2045,2.373,3.615,70.39,0,109.9,13.3,3.13,106.1
"2016-03-08 00:34:00",1438559,5.98,147.7,7.805,1.557,8.3,101.2048,2.373,3.553,70.22,0,109.9,13.3,3.13,109.7
"2016-03-08 00:34:30",1438560,5.792,148.8,10.57,1.451,8.34,101.2051,2.374,3.51,69.93,0,109.9,13.3,3.13,110.8
"2016-03-08 00:35:00",1438561,4.398,132.9,9.14,1.516,8.54,101.2051,2.374,3.555,69.77,0,109.9,13.3,3.13,94.9
"2016-03-08 00:35:30",1438562,4.106,136,13.72,1.359,7.358,101.2054,2.375,3.488,69.55,0,109.9,13.3,3.14,98.0
"2016-03-08 00:36:00",1438563,4.949,140.3,8.23,1.353,9.1,101.2099,2.386,3.584,69.53,0,109.9,13.3,3.15,102.3
"2016-03-08 00:36:30",1438564,4.582,137.5,8.95,1.382,9.12,101.2144,2.398,3.567,69.29,0,109.9,13.3,3.16,99.5
"2016-03-08 00:37:00",1438565,3.354,119.7,9.71,1.245,8.13,101.2201,2.412,3.559,68.8,0,109.9,13.3,3.17,81.7
"2016-03-08 00:37:30",1438566,3.296,116.1,11.43,1.478,8.22,101.2215,2.416,3.535,68,0,109.9,13.3,3.18,78.1
"2016-03-08 00:38:00",1438567,3.177,138.8,15.21,1.095,8.24,101.2249,2.425,3.558,66.94,0,109.9,13.31,3.19,100.8
"2016-03-08 00:38:30",1438568,2.966,135.1,10.78,1.297,7.582,101.2323,2.443,3.508,66.28,0,109.9,13.31,3.20,97.1
"2016-03-08 00:39:00",1438569,4.948,139.9,13.43,1.472,9.05,101.2408,2.465,3.574,66.07,0,109.9,13.31,3.23,101.9
"2016-03-08 00:39:30",1438570,5.011,151.4,16.16,1.701,8.11,101.241,2.466,3.613,66.62,0,109.9,13.31,3.23,113.4
"2016-03-08 00:40:00",1438571,5.214,148.8,14.63,1.472,9.04,101.2419,2.468,3.596,67.88,0,109.9,13.31,3.23,110.8
"2016-03-08 00:40:30",1438572,5.031,164.6,8.1,1.146,6.932,101.256,2.504,3.617,68.18,0,109.9,13.31,3.26,126.6
"2016-03-08 00:41:00",1438573,4.393,151.5,20.93,1.618,8.27,101.2609,2.516,3.606,68.89,0,109.9,13.31,3.28,113.5
"2016-03-08 00:41:30",1438574,4.945,157.6,9.05,1.63,7.967,101.264,2.524,3.648,68.4,0,109.9,13.31,3.29,119.6
"2016-03-08 00:42:00",1438575,4.715,164.3,7.017,1.221,7.66,101.2756,2.554,3.65,69.17,0,109.9,13.31,3.32,126.3
"2016-03-08 00:42:30",1438576,4.798,164.4,6.71,1.461,7.916,101.2801,2.566,3.676,69.69,0,109.9,13.3,3.33,126.4
"2016-03-08 00:43:00",1438577,5.43,168,7.127,1.3,8.52,101.2807,2.567,3.683,70.27,0,109.9,13.3,3.33,130.0
"2016-03-08 00:43:30",1438578,4.386,164.5,6.699,1.263,7.135,101.281,2.568,3.72,71.45,0,109.8,13.3,3.33,126.5
"2016-03-08 00:44:00",1438579,3.808,176.7,10.56,1.525,8.59,101.277,2.558,3.679,72.17,0,109.9,13.3,3.32,138.7
"2016-03-08 00:44:30",1438580,2.195,216.1,24.92,1.257,7.835,101.2688,2.537,3.647,71.07,0,109.9,13.3,3.30,178.1
"2016-03-08 00:45:00",1438581,3.114,214.2,23.2,1.446,8.65,101.2697,2.539,3.66,69.69,0,109.9,13.3,3.30,176.2
"2016-03-08 00:45:30",1438582,3.602,182.4,22.97,1.519,8.82,101.27,2.54,3.611,68.16,0,109.8,13.3,3.30,144.4
"2016-03-08 00:46:00",1438583,1.925,148.8,24.45,1.182,7.798,101.2734,2.548,3.591,66.98,0,109.8,13.3,3.31,110.8
"2016-03-08 00:46:30",1438584,1.548,134.6,13.41,0.965,6.479,101.2822,2.571,3.509,65.51,0,109.9,13.3,3.33,96.6
"2016-03-08 00:47:00",1438585,3.832,163.5,17.6,1.542,8.61,101.2836,2.574,3.633,65.29,0,109.8,13.3,3.34,125.5
"2016-03-08 00:47:30",1438586,3.785,183.4,15.74,1.487,9.38,101.2836,2.574,3.734,65.57,0,109.9,13.3,3.34,145.4
"2016-03-08 00:48:00",1438587,3.319,182.3,19.43,1.238,8.66,101.2844,2.577,3.719,65.41,0,109.9,13.31,3.34,144.3
"2016-03-08 00:48:30",1438588,2.935,143.1,18.97,1.591,9.44,101.2977,2.611,3.708,65.74,0,109.9,13.31,3.37,105.1
"2016-03-08 00:49:00",1438589,2.793,162.3,17.26,1.348,9.07,101.3071,2.634,3.75,65.38,0,109.9,13.31,3.40,124.3
"2016-03-08 00:49:30",1438590,0.793,162.7,11.2,0.166,6.56,101.3181,2.663,3.557,64.41,0,109.9,13.35,3.42,124.7
"2016-03-08 00:50:00",1438591,0.819,206.2,11,0.423,6.263,101.3215,2.671,3.579,63.73,0,109.9,13.35,3.43,168.2
"2016-03-08 00:50:30",1438592,2.803,179.5,16.04,1.628,7.367,101.3198,2.667,3.706,63.75,0,109.8,13.31,3.43,141.5
"2016-03-08 00:51:00",1438593,4.289,179.3,10.71,1.475,9.66,101.3269,2.685,3.86,64.86,0,109.9,13.32,3.45,141.3
"2016-03-08 00:51:30",1438594,4.994,184.9,8.53,1.383,10.01,101.3379,2.713,3.871,65.32,0,109.9,13.31,3.47,146.9
"2016-03-08 00:52:00",1438595,5.185,177.6,7.921,1.302,10.03,101.3413,2.722,3.861,65.39,0,109.8,13.31,3.48,139.6
"2016-03-08 00:52:30",1438596,4.314,171.8,8.7,1.304,7.893,101.3481,2.739,3.761,65.43,0,109.9,13.31,3.50,133.8
"2016-03-08 00:53:00",1438597,2.827,166.9,4.37,0.256,6.079,101.3569,2.762,3.669,65.48,0,109.9,13.36,3.52,128.9
"2016-03-08 00:53:30",1438598,3.181,174.8,12.57,1.256,7.698,101.3566,2.761,3.777,65.4,0,109.9,13.31,3.52,136.8
"2016-03-08 00:54:00",1438599,2.919,186,9.68,1.382,9.39,101.3569,2.762,3.845,64.98,0,109.8,13.31,3.52,148.0
"2016-03-08 00:54:30",1438600,2.756,182.7,6.903,1.522,9.52,101.3566,2.761,3.866,64.56,0,109.8,13.31,3.52,144.7
"2016-03-08 00:55:00",1438601,3.297,183.3,8.81,1.282,9.36,101.3566,2.761,3.981,64.37,0,109.9,13.31,3.52,145.3
"2016-03-08 00:55:30",1438602,3.278,190.6,9.68,1.477,9.48,101.3592,2.767,3.83,63.83,0,109.8,13.31,3.53,152.6
"2016-03-08 00:56:00",1438603,2.173,184,4.235,0.151,6.551,101.3654,2.783,3.769,63.25,0,109.9,13.36,3.54,146.0
"2016-03-08 00:56:30",1438604,2.191,187,8.95,0.284,6.013,101.3835,2.829,3.744,62.93,0,109.9,13.36,3.59,149.0
"2016-03-08 00:57:00",1438605,3.595,185.2,10.51,1.275,7.644,101.3917,2.85,3.864,63.88,0,109.8,13.32,3.61,147.2
"2016-03-08 00:57:30",1438606,4.981,182,9.35,1.385,10.36,101.3917,2.85,4.03,64.03,0,109.9,13.32,3.61,144.0
"2016-03-08 00:58:00",1438607,4.408,191.9,11.68,1.314,10.64,101.3914,2.85,4.027,63.62,0,109.9,13.32,3.61,153.9
"2016-03-08 00:58:30",1438608,3.978,185.2,7.973,1.375,9.18,101.3985,2.868,3.977,63.18,0,109.9,13.32,3.63,147.2
"2016-03-08 00:59:00",1438609,3.561,179.7,6.802,1.161,7.552,101.407,2.889,3.915,63.27,0,109.8,13.31,3.65,141.7
"2016-03-08 00:59:30",1438610,2.79,176.5,8.04,0.358,6.126,101.4076,2.891,3.825,63.49,0,109.8,13.35,3.65,138.5
"2016-03-08 01:00:00",1438611,4.389,180.8,12.46,1.178,7.522,101.4093,2.895,3.899,63.61,0,109.8,13.31,3.66,142.8
"2016-03-08 01:00:30",1438612,4.837,180.5,8.91,1.457,9.73,101.4143,2.908,4.081,64.12,0,109.9,13.3,3.67,142.5
"2016-03-08 01:01:00",1438613,4.743,191.3,10.18,1.353,10.89,101.42,2.923,4.105,64.23,0,109.8,13.3,3.68,153.3
"2016-03-08 01:01:30",1438614,4.869,192.9,15.93,1.3,10.3,101.4254,2.936,4.044,63.63,0,109.9,13.3,3.70,154.9
"2016-03-08 01:02:00",1438615,3.7,170.4,7.592,1.581,7.525,101.4254,2.936,3.964,63.79,0,109.8,13.3,3.70,132.4
"2016-03-08 01:02:30",1438616,2.335,190,13.6,0.266,6.504,101.4257,2.937,3.882,64.04,0,109.9,13.35,3.70,152.0
"2016-03-08 01:03:00",1438617,4.01,195.7,5.925,1.492,7.649,101.4257,2.937,3.942,63.23,0,109.9,13.3,3.70,157.7
"2016-03-08 01:03:30",1438618,3.861,207.3,7.96,1.32,8.84,101.4257,2.937,4.073,62.78,0,109.9,13.3,3.70,169.3
"2016-03-08 01:04:00",1438619,4.389,210.7,10.47,1.571,10.53,101.4257,2.937,4.101,62.06,0,109.9,13.31,3.70,172.7
"2016-03-08 01:04:30",1438620,4.094,214,13.36,1.478,10.62,101.4274,2.941,4.163,61.74,0,109.9,13.31,3.70,176.0
"2016-03-08 01:05:00",1438621,2.846,226.4,9.79,1.386,9.3,101.4381,2.969,4.105,61.27,0,109.9,13.31,3.73,188.4
"2016-03-08 01:05:30",1438622,1.539,201.5,17.52,0.199,6.108,101.4528,3.006,3.926,61.25,0,109.9,13.36,3.77,163.5
"2016-03-08 01:06:00",1438623,1.668,212,20.84,0.295,6.228,101.459,3.022,3.937,61.73,0,109.8,13.36,3.78,174.0
"2016-03-08 01:06:30",1438624,3.014,186,9.49,1.098,7.153,101.4596,3.024,4.061,61.75,0,109.9,13.32,3.79,148.0
"2016-03-08 01:07:00",1438625,4.447,201.6,11.55,1.384,9.7,101.4596,3.024,4.145,62.1,0,109.9,13.32,3.79,163.6
"2016-03-08 01:07:30",1438626,5.207,194.3,7.925,1.298,10.36,101.4593,3.023,4.261,62.74,0,109.9,13.32,3.79,156.3
"2016-03-08 01:08:00",1438627,5.083,194.7,9.62,1.578,9.95,101.4605,3.026,4.23,63.38,0,109.9,13.32,3.79,156.7
"2016-03-08 01:08:30",1438628,4.264,195.7,12.45,1.332,8.42,101.4602,3.025,4.198,63.86,0,109.9,13.32,3.79,157.7
"2016-03-08 01:09:00",1438629,3.04,201.3,7.408,0.532,6.07,101.461,3.027,4.007,63.51,0,109.9,13.36,3.79,163.3
"2016-03-08 01:09:30",1438630,3.403,204.5,23.12,1.12,7.269,101.461,3.027,4.059,63.15,0,109.9,13.32,3.79,166.5
"2016-03-08 01:10:00",1438631,3.515,239.9,9.41,1.401,8.74,101.4664,3.041,4.164,62.58,0,109.8,13.32,3.80,201.9
"2016-03-08 01:10:30",1438632,4.437,207.5,9.13,1.524,10.1,101.4763,3.066,4.254,62.3,0,109.9,13.32,3.83,169.5
"2016-03-08 01:11:00",1438633,4.743,227.2,10.77,1.469,10.37,101.4766,3.067,4.274,62.71,0,109.9,13.32,3.83,189.2
"2016-03-08 01:11:30",1438634,4.282,211.1,11.13,1.445,8.02,101.4763,3.066,4.158,62.53,0,109.9,13.31,3.83,173.1
"2016-03-08 01:12:00",1438635,3.399,186.2,7.539,0.331,6.313,101.4766,3.067,4.09,63.42,0,109.9,13.36,3.83,148.2
"2016-03-08 01:12:30",1438636,3.514,188.6,10.24,1.256,7.285,101.4769,3.068,4.129,63.55,0,109.9,13.31,3.83,150.6
"2016-03-08 01:13:00",1438637,3.913,197.7,12.37,1.428,9.3,101.4766,3.067,4.221,63.36,0,109.9,13.31,3.83,159.7
"2016-03-08 01:13:30",1438638,3.121,218.3,12.13,1.28,8.89,101.4766,3.067,4.239,63.13,0,109.8,13.32,3.83,180.3
"2016-03-08 01:14:00",1438639,2.793,217.1,17.66,1.314,9.44,101.4766,3.067,4.229,62.58,0,109.9,13.31,3.83,179.1
"2016-03-08 01:14:30",1438640,2.502,202.5,28.84,1.618,9.55,101.4769,3.068,4.184,61.65,0,109.9,13.31,3.83,164.5
"2016-03-08 01:15:00",1438641,0.86,144.6,20.89,0.252,7.1,101.489,3.099,4.043,59.11,0,109.9,13.36,3.86,106.6
"2016-03-08 01:15:30",1438642,0.106,126,89.7,0.423,6.78,101.4938,3.111,4.049,57.94,0,109.9,13.36,3.87,88.0
"2016-03-08 01:16:00",1438643,0.026,210.5,74.88,0.312,6.727,101.5066,3.143,4.062,57.63,0,109.9,13.35,3.91,172.5
"2016-03-08 01:16:30",1438644,2.247,265.8,20.86,1.637,8.3,101.515,3.165,4.164,57.42,0,109.9,13.31,3.93,227.8
"2016-03-08 01:17:00",1438645,4.585,238.9,10.59,1.419,10.09,101.5238,3.188,4.313,57.53,0,109.9,13.31,3.95,200.9
"2016-03-08 01:17:30",1438646,3.356,239.9,28.15,1.583,11.25,101.5272,3.196,4.39,57.36,0,109.9,13.3,3.96,201.9
"2016-03-08 01:18:00",1438647,3.024,251.1,20.2,1.404,10.4,101.5275,3.197,4.297,57.16,0,109.9,13.3,3.96,213.1
"2016-03-08 01:18:30",1438648,2.065,251.8,24.12,1.179,8.19,101.5329,3.211,4.248,57.48,0,109.9,13.31,3.97,213.8
"2016-03-08 01:19:00",1438649,1.545,262.3,20.88,0.898,6.841,101.5433,3.237,4.158,56.81,0,109.9,13.35,4.00,224.3
"2016-03-08 01:19:30",1438650,2.037,220.3,6.927,0.575,6.504,101.5606,3.281,4.177,56.71,0,109.9,13.35,4.04,182.3
"2016-03-08 01:20:00",1438651,2.351,256,49.91,1.68,8.63,101.5614,3.284,4.29,56.92,0,109.9,13.3,4.05,218.0
"2016-03-08 01:20:30",1438652,2.765,281.9,14.49,1.432,9.9,101.5614,3.284,4.375,56.33,0,109.9,13.31,4.05,243.9
"2016-03-08 01:21:00",1438653,4.059,278.9,18.09,1.456,11.06,101.5685,3.302,4.469,56.08,0,109.9,13.31,4.07,240.9
"2016-03-08 01:21:30",1438654,3.782,215.6,13.74,1.602,9.93,101.581,3.333,4.436,56.68,0,109.9,13.31,4.10,177.6
"2016-03-08 01:22:00",1438655,2.666,239.4,13.49,1.108,8.25,101.5954,3.37,4.356,57.24,0,109.9,13.31,4.13,201.4
"2016-03-08 01:22:30",1438656,2.065,246.4,3.465,0.165,7.035,101.5954,3.37,4.282,56.88,0,109.9,13.36,4.13,208.4
"2016-03-08 01:23:00",1438657,2.803,259,15.46,1.195,8.58,101.5957,3.371,4.421,56.25,0,109.9,13.32,4.13,221.0
"2016-03-08 01:23:30",1438658,3.093,262.9,21.82,1.377,8.94,101.6022,3.388,4.492,55.95,0,109.9,13.32,4.15,224.9
"2016-03-08 01:24:00",1438659,3.05,228.3,11.96,1.326,9.42,101.6084,3.403,4.483,55.82,0,109.9,13.32,4.17,190.3
"2016-03-08 01:24:30",1438660,4.099,261.5,12.35,1.361,10.52,101.6152,3.421,4.549,55.85,0,109.9,13.32,4.18,223.5
"2016-03-08 01:25:00",1438661,3.496,261.6,12.89,1.584,9.57,101.6276,3.453,4.509,55.63,0,109.9,13.32,4.22,223.6
"2016-03-08 01:25:30",1438662,2.786,243.4,6.379,1.24,8.48,101.6293,3.457,4.424,55.55,0,109.9,13.32,4.22,205.4
"2016-03-08 01:26:00",1438663,2.011,247.7,6.972,0.321,7.059,101.6293,3.457,4.397,55.16,0,109.9,13.36,4.22,209.7
"2016-03-08 01:26:30",1438664,4.067,257.7,11.45,1.393,9.32,101.6449,3.497,4.517,55.17,0,109.9,13.32,4.26,219.7
"2016-03-08 01:27:00",1438665,3.458,243,9.96,1.505,8.64,101.6559,3.525,4.526,55.32,0,109.9,13.32,4.29,205.0
"2016-03-08 01:27:30",1438666,3.979,245.6,10.24,1.405,9.54,101.6633,3.543,4.655,55.49,0,109.9,13.32,4.31,207.6
"2016-03-08 01:28:00",1438667,4.459,258.9,7.639,1.299,11.13,101.6633,3.543,4.712,55.2,0,109.9,13.32,4.31,220.9
"2016-03-08 01:28:30",1438668,4.539,257.5,8.36,1.485,10.36,101.6652,3.549,4.622,54.8,0,109.9,13.32,4.31,219.5
"2016-03-08 01:29:00",1438669,2.252,238.6,6.45,0.387,7.094,101.6771,3.579,4.485,54.6,0,109.9,13.36,4.34,200.6
"2016-03-08 01:29:30",1438670,2.536,228.3,7.612,0.878,7.107,101.6797,3.585,4.591,54.9,0,109.9,13.32,4.35,190.3
"2016-03-08 01:30:00",1438671,3.503,240.5,12.19,1.654,9.14,101.6873,3.605,4.679,55.14,0,109.9,13.32,4.37,202.5
"2016-03-08 01:30:30",1438672,3.333,243.9,8.96,1.547,9.16,101.6969,3.629,4.725,54.94,0,109.9,13.32,4.39,205.9
"2016-03-08 01:31:00",1438673,3.99,259,9.31,1.328,10.22,101.6972,3.63,4.733,54.43,0,109.9,13.32,4.39,221.0
"2016-03-08 01:31:30",1438674,4.394,250.4,19.93,1.954,10.04,101.6983,3.633,4.73,54.52,0,109.9,13.32,4.40,212.4
"2016-03-08 01:32:00",1438675,3.994,258.3,17.43,1.344,9.1,101.7108,3.665,4.673,52.82,0,109.9,13.32,4.43,220.3
"2016-03-08 01:32:30",1438676,2.563,247.6,10.36,0.299,7.329,101.7266,3.705,4.64,52.86,0,109.9,13.36,4.47,209.6
"2016-03-08 01:33:00",1438677,4.271,244,12.84,1.511,9.86,101.7312,3.717,4.783,53.15,0,109.9,13.31,4.48,206.0
"2016-03-08 01:33:30",1438678,3.872,260.8,7.492,1.165,9.12,101.7312,3.717,4.749,52.55,0,110,13.31,4.48,222.8
"2016-03-08 01:34:00",1438679,3.862,247.7,7.86,1.326,9.98,101.7334,3.723,4.856,52.11,0,109.9,13.31,4.49,209.7
"2016-03-08 01:34:30",1438680,5.172,238.4,7.388,1.374,10.49,101.745,3.752,4.886,52.83,0,109.9,13.31,4.52,200.4
"2016-03-08 01:35:00",1438681,4.46,235.8,9.78,1.089,8.78,101.76,3.79,4.81,53.51,0,109.9,13.31,4.56,197.8
"2016-03-08 01:35:30",1438682,4.988,259.1,17.92,1.091,9.36,101.7651,3.803,4.853,52.52,0,109.9,13.3,4.57,221.1
"2016-03-08 01:36:00",1438683,5.192,282.1,24.97,2.06,10.6,101.7651,3.803,4.891,50.92,0,109.9,13.3,4.57,244.1
"2016-03-08 01:36:30",1438684,4.512,222.1,8.18,1.256,9.93,101.7775,3.835,4.969,52.07,0,109.9,13.3,4.60,184.1
"2016-03-08 01:37:00",1438685,4.291,231.8,7.988,1.419,10.28,101.7891,3.865,4.949,52.49,0,109.9,13.3,4.63,193.8
"2016-03-08 01:37:30",1438686,4.199,231.2,7.394,1.365,9.7,101.799,3.89,4.889,52.37,0,109.9,13.3,4.66,193.2
"2016-03-08 01:38:00",1438687,4.519,232.7,6.877,1.287,9.66,101.799,3.89,5.007,52.47,0,109.9,13.3,4.66,194.7
"2016-03-08 01:38:30",1438688,3.887,224.1,6.487,0.837,7.692,101.799,3.89,4.83,52.44,0,109.9,13.31,4.66,186.1
"2016-03-08 01:39:00",1438689,4.525,229.5,7.13,1.287,9.37,101.8033,3.901,5.015,52.54,0,109.9,13.31,4.67,191.5
"2016-03-08 01:39:30",1438690,4.584,231,7.868,1.362,9.56,101.8154,3.932,4.981,52.58,0,109.9,13.31,4.70,193.0
"2016-03-08 01:40:00",1438691,4.449,235.4,7.104,1.376,9.65,101.82,3.944,5.006,52.64,0,109.9,13.31,4.71,197.4
"2016-03-08 01:40:30",1438692,5.259,239.1,7.343,1.345,10.66,101.8282,3.965,5.044,52.46,0,109.9,13.31,4.73,201.1
"2016-03-08 01:41:00",1438693,5.163,238.2,6.492,1.314,10.06,101.833,3.977,5.107,52.17,0,109.9,13.31,4.74,200.2
"2016-03-08 01:41:30",1438694,4.894,243.7,5.168,1.41,9.46,101.8327,3.976,4.91,51.44,0,109.9,13.31,4.74,205.7
"2016-03-08 01:42:00",1438695,4.381,242.5,8.87,1.155,9.11,101.8327,3.976,5.048,51.08,0,109.9,13.31,4.74,204.5
"2016-03-08 01:42:30",1438696,5.26,256.9,8.26,1.413,10.17,101.8355,3.983,5.109,50.67,0,109.9,13.31,4.75,218.9
"2016-03-08 01:43:00",1438697,4.391,234.2,8.12,1.31,9.3,101.8545,4.032,5.096,50.31,0,109.9,13.31,4.80,196.2
"2016-03-08 01:43:30",1438698,5.512,234.3,7.083,1.323,10.73,101.8652,4.059,5.191,50.82,0,109.9,13.31,4.83,196.3
"2016-03-08 01:44:00",1438699,5.457,236.1,6.827,1.352,10,101.8664,4.062,5.093,50.56,0,109.9,13.31,4.83,198.1
"2016-03-08 01:44:30",1438700,5.58,233.5,7.869,1.399,10.1,101.8658,4.06,5.125,50.39,0,109.9,13.3,4.83,195.5
"2016-03-08 01:45:00",1438701,5.182,227.4,7.171,1.367,9.78,101.8748,4.084,5.206,50.72,0,109.9,13.31,4.85,189.4
"2016-03-08 01:45:30",1438702,5.258,229.2,6.745,1.365,9.91,101.8827,4.104,5.227,50.89,0,109.9,13.3,4.87,191.2
"2016-03-08 01:46:00",1438703,5.78,235,9.36,1.46,10.09,101.891,4.125,5.194,51.06,0,109.9,13.3,4.89,197.0
"2016-03-08 01:46:30",1438704,6.121,232.1,5.946,1.251,10.25,101.9,4.148,5.205,50.88,0,109.9,13.3,4.91,194.1
"2016-03-08 01:47:00",1438705,5.937,233,7.576,1.453,10.2,101.8991,4.146,5.181,50.4,0,109.9,13.3,4.91,195.0
"2016-03-08 01:47:30",1438706,5.288,225.9,6.62,1.2,9.34,101.9006,4.149,5.226,49.59,0,109.9,13.3,4.92,187.9
"2016-03-08 01:48:00",1438707,5.711,227.9,7.283,1.39,10.28,101.8983,4.143,5.277,49.32,0,109.9,13.3,4.91,189.9
"2016-03-08 01:48:30",1438708,5.232,227.5,7.561,1.337,10.71,101.9065,4.164,5.298,49.36,0,109.9,13.3,4.93,189.5
"2016-03-08 01:49:00",1438709,4.45,223.7,8.89,1.23,9.69,101.915,4.186,5.339,49.83,0,109.9,13.3,4.95,185.7